Canadian, TX

10:13 AM CST on February 06, 2016 (GMT -0600)
Hemphill County

Weather History for KHHF - April, 2013

Change the Weather History Date:

Tuesday, April 2, 2013

  Actual Average (KPPA) Record (KPPA)
Temperature  
Mean Temperature 36 °F -  
Max Temperature 37 °F 64 °F 90 °F (1978)
Min Temperature 33 °F 37 °F 19 °F (1975)
Degree Days  
Heating Degree Days 30    
Moisture  
Dew Point 32 °F    
Average Humidity 87    
Maximum Humidity 97    
Minimum Humidity 66    
Precipitation  
Precipitation 0.00 in - - ()
Sea Level Pressure  
Sea Level Pressure 30.16 in    
Wind  
Wind Speed 10 mph (NE)    
Max Wind Speed 16 mph    
Max Gust Speed 20 mph    
Visibility 6 miles    
Events Rain , Snow , Thunderstorm    
Averages and records for this station are not official NWS values.
T = Trace of Precipitation, MM = Missing Value Source: NWS Daily Summary

Daily Weather History Graph

Daily Weather History Graph

Search for Another Location

Airport or City:

Trip Planner

Search our weather history database for the weather conditions in past years. The results will help you decide how hot, cold, wet, or windy it might be!

Date:

Astronomy

Apr. 02, 2013 Rise Set
Actual Time 7:26 AM CDT 8:04 PM CDT
Civil Twilight 7:00 AM CDT 8:30 PM CDT
Nautical Twilight 6:29 AM CDT 9:00 PM CDT
Astronomical Twilight 5:58 AM CDT 9:32 PM CDT
Moon 2:03 AM CDT (4/2) 12:26 PM CDT (4/2)
Length of Visible Light 13h 30m
Length of Day
12h 38m
Waning Gibbous, 55% of the Moon is Illuminated
Apr 2
Waning Gibbous
Apr 2
Last Quarter
Apr 10
New
Apr 18
First Quarter
Apr 25
Full

Hourly Weather History & Observations

Time (CDT) Temp. Windchill Dew Point Humidity Pressure Visibility Wind Dir Wind Speed Gust Speed Precip Events Conditions
12:15 AM 36.5 °F 29.7 °F 32.0 °F 84% 30.15 in 10.0 mi NE 9.2 mph - N/A   Clear
12:35 AM 36.5 °F 30.3 °F 32.0 °F 84% 30.16 in 10.0 mi NE 8.1 mph - N/A   Clear
12:55 AM 36.1 °F 29.3 °F 31.8 °F 84% 30.16 in 10.0 mi NE 9.2 mph - N/A   Clear
1:15 AM 36.1 °F 29.3 °F 31.8 °F 84% 30.16 in 10.0 mi NNE 9.2 mph - N/A   Clear
1:35 AM 36.0 °F 29.6 °F 31.5 °F 84% 30.16 in 10.0 mi NNE 8.1 mph - N/A   Clear
1:55 AM 36.0 °F 29.0 °F 30.7 °F 81% 30.15 in 10.0 mi NE 9.2 mph - N/A   Scattered Clouds
2:15 AM 36.3 °F 29.5 °F 30.2 °F 78% 30.16 in 10.0 mi NNE 9.2 mph - N/A   Overcast
2:35 AM 36.5 °F 29.2 °F 29.8 °F 77% 30.16 in 10.0 mi NNE 10.4 mph - N/A   Overcast
2:55 AM 36.5 °F 28.2 °F 29.5 °F 76% 30.15 in 10.0 mi NNE 12.7 mph - N/A   Overcast
3:15 AM 36.7 °F 28.4 °F 28.6 °F 72% 30.15 in 10.0 mi NE 12.7 mph 17.3 mph N/A   Overcast
3:35 AM 36.7 °F 29.4 °F 28.4 °F 72% 30.15 in 10.0 mi NE 10.4 mph - N/A   Overcast
3:55 AM 36.7 °F 29.9 °F 28.6 °F 72% 30.14 in 10.0 mi NE 9.2 mph 17.3 mph N/A   Overcast
4:15 AM 36.9 °F 29.6 °F 28.9 °F 73% 30.14 in 10.0 mi NE 10.4 mph 17.3 mph N/A   Overcast
4:35 AM 37.0 °F 29.3 °F 29.1 °F 73% 30.14 in 10.0 mi NE 11.5 mph - N/A   Overcast
4:55 AM 37.4 °F 30.3 °F 28.2 °F 69% 30.14 in 10.0 mi NE 10.4 mph - N/A   Overcast
5:15 AM 37.4 °F 30.8 °F 27.7 °F 68% 30.14 in 10.0 mi NE 9.2 mph - N/A   Overcast
5:35 AM 37.4 °F 29.8 °F 27.3 °F 67% 30.14 in 10.0 mi NE 11.5 mph 19.6 mph N/A   Overcast
5:55 AM 37.4 °F 29.8 °F 27.0 °F 66% 30.14 in 10.0 mi NE 11.5 mph 19.6 mph N/A   Overcast
6:15 AM 37.4 °F 28.5 °F 27.5 °F 67% 30.15 in 10.0 mi NE 15.0 mph 18.4 mph N/A   Overcast
6:35 AM 37.0 °F 28.5 °F 26.6 °F 66% 30.16 in 10.0 mi NE 13.8 mph 17.3 mph N/A   Overcast
6:55 AM 36.9 °F 28.7 °F 27.3 °F 68% 30.16 in 10.0 mi ENE 12.7 mph - N/A   Overcast
7:15 AM 36.7 °F 28.4 °F 26.4 °F 66% 30.16 in 10.0 mi NE 12.7 mph 18.4 mph N/A   Overcast
7:35 AM 36.5 °F 28.7 °F 26.8 °F 68% 30.17 in 10.0 mi NE 11.5 mph - N/A   Overcast
7:55 AM 36.7 °F 28.0 °F 27.3 °F 69% 30.17 in 10.0 mi NE 13.8 mph - N/A   Overcast
8:15 AM 36.7 °F 28.9 °F 27.7 °F 70% 30.17 in 10.0 mi NE 11.5 mph - N/A   Overcast
8:35 AM 36.7 °F 27.2 °F 27.7 °F 70% 30.17 in 10.0 mi NE 16.1 mph 19.6 mph N/A   Overcast
8:55 AM 36.1 °F 27.3 °F 28.0 °F 72% 30.18 in 10.0 mi ENE 13.8 mph 18.4 mph N/A   Overcast
9:35 AM 34.9 °F 25.7 °F 30.6 °F 84% 30.18 in 10.0 mi NE 13.8 mph 18.4 mph N/A   Overcast
9:55 AM 34.3 °F 26.5 °F 32.2 °F 92% 30.18 in 3.0 mi NE 10.4 mph - N/A   Overcast
10:15 AM 34.5 °F 28.6 °F 33.3 °F 95% 30.19 in 1.8 mi NNE 6.9 mph - N/A Rain Light Rain
10:35 AM 34.7 °F 26.9 °F 33.8 °F 97% 30.18 in 1.5 mi NE 10.4 mph - N/A Rain Light Rain
10:55 AM 34.7 °F 28.8 °F 33.8 °F 97% 30.19 in 2.5 mi NE 6.9 mph - N/A Rain Light Rain
11:15 AM 35.1 °F 30.1 °F 34.0 °F 96% 30.19 in 1.8 mi NNE 5.8 mph - N/A Rain Light Rain
11:35 AM 35.6 °F 28.6 °F 34.3 °F 95% 30.19 in 2.0 mi ENE 9.2 mph - N/A Rain Light Rain
11:55 AM 35.6 °F 29.9 °F 34.5 °F 96% 30.20 in 2.5 mi ENE 6.9 mph - N/A Rain Rain
12:15 PM 36.0 °F 29.6 °F 34.9 °F 96% 30.19 in 2.0 mi ENE 8.1 mph - N/A Rain Rain
12:35 PM 36.7 °F 30.5 °F 35.6 °F 96% 30.19 in 2.5 mi NE 8.1 mph - N/A Rain Light Rain
12:55 PM 36.7 °F 29.9 °F 35.6 °F 96% 30.18 in 3.0 mi NE 9.2 mph - N/A Rain Light Rain
1:15 PM 36.9 °F 30.1 °F 35.8 °F 96% 30.18 in 3.0 mi NE 9.2 mph - N/A Thunderstorm Overcast
1:35 PM 37.4 °F 29.8 °F 36.1 °F 95% 30.17 in 4.0 mi ENE 11.5 mph 17.3 mph N/A   Overcast
1:55 PM 37.4 °F 30.8 °F 36.1 °F 95% 30.17 in 2.5 mi NE 9.2 mph - N/A   Overcast
2:15 PM 37.8 °F 29.8 °F 36.3 °F 95% 30.16 in 2.5 mi NE 12.7 mph - N/A   Light Drizzle
2:35 PM 37.8 °F 29.4 °F 36.5 °F 95% 30.15 in 2.5 mi NE 13.8 mph 17.3 mph N/A Rain , Thunderstorm Light Thunderstorms and Rain
2:55 PM 37.4 °F 29.8 °F 36.1 °F 95% 30.15 in 3.0 mi NNE 11.5 mph - N/A   Overcast
3:15 PM 37.4 °F 29.8 °F 35.8 °F 94% 30.15 in 7.0 mi NE 11.5 mph 16.1 mph N/A   Overcast
3:35 PM 36.9 °F 29.1 °F 35.6 °F 95% 30.15 in 2.0 mi NNE 11.5 mph 17.3 mph N/A Rain Light Rain
3:55 PM 37.2 °F 30.0 °F 36.0 °F 95% 30.14 in 3.0 mi NE 10.4 mph - N/A Rain Light Rain
4:15 PM 36.7 °F 28.4 °F 35.6 °F 96% 30.13 in 1.8 mi NE 12.7 mph 18.4 mph N/A Rain Light Rain
4:35 PM 36.7 °F 28.0 °F 35.6 °F 96% 30.13 in 1.8 mi NNE 13.8 mph 18.4 mph N/A Rain Light Rain
4:55 PM 36.0 °F 26.7 °F 34.9 °F 96% 30.13 in 2.5 mi NNE 15.0 mph 19.6 mph N/A Rain Light Rain
5:15 PM 36.0 °F 28.0 °F 34.9 °F 96% 30.13 in 4.0 mi NE 11.5 mph - N/A   Overcast
5:35 PM 36.3 °F 28.4 °F 35.1 °F 95% 30.12 in 5.0 mi NNE 11.5 mph 18.4 mph N/A   Overcast
5:55 PM 36.0 °F 26.7 °F 34.9 °F 96% 30.12 in 3.0 mi NE 15.0 mph - N/A   Overcast
6:15 PM 36.0 °F 29.0 °F 34.7 °F 95% 30.12 in 5.0 mi NE 9.2 mph - N/A   Overcast
6:35 PM 36.0 °F 29.0 °F 34.7 °F 95% 30.12 in 7.0 mi NE 9.2 mph - N/A   Overcast
6:55 PM 35.6 °F 27.5 °F 34.5 °F 96% 30.12 in 7.0 mi NE 11.5 mph - N/A   Overcast
7:15 PM 35.6 °F 26.6 °F 34.2 °F 94% 30.13 in 5.0 mi NE 13.8 mph - N/A   Overcast
7:35 PM 35.6 °F 27.5 °F 34.2 °F 94% 30.13 in 4.0 mi NE 11.5 mph - N/A   Overcast
7:55 PM 35.1 °F 26.4 °F 34.0 °F 96% 30.13 in 4.0 mi NE 12.7 mph - N/A   Overcast
8:15 PM 34.7 °F 25.9 °F 33.8 °F 97% 30.12 in 7.0 mi NE 12.7 mph 19.6 mph N/A   Overcast
8:35 PM 34.9 °F 27.7 °F 33.8 °F 96% 30.13 in 5.0 mi ENE 9.2 mph - N/A   Overcast
8:55 PM 35.1 °F 27.4 °F 34.2 °F 97% 30.13 in 4.0 mi ENE 10.4 mph 16.1 mph N/A   Overcast
9:15 PM 34.9 °F 26.2 °F 34.0 °F 97% 30.14 in 4.0 mi NE 12.7 mph - N/A   Overcast
9:35 PM 34.7 °F 26.4 °F 33.8 °F 97% 30.16 in 3.0 mi NE 11.5 mph - N/A Rain Light Rain
9:55 PM 34.7 °F 28.1 °F 33.8 °F 97% 30.16 in 3.0 mi NE 8.1 mph - N/A Rain Light Rain
10:15 PM 34.9 °F 27.1 °F 34.0 °F 97% 30.17 in 3.0 mi NE 10.4 mph - N/A Rain Light Rain
10:35 PM 34.7 °F 28.1 °F 33.8 °F 97% 30.18 in 2.5 mi ENE 8.1 mph 17.3 mph N/A Snow Light Snow
10:55 PM 34.7 °F 26.4 °F 33.8 °F 97% 30.18 in 2.0 mi NNE 11.5 mph 18.4 mph N/A Rain Rain
11:15 PM 34.7 °F 28.1 °F 34.0 °F 97% 30.19 in 2.0 mi NNE 8.1 mph - N/A Rain Light Rain
11:35 PM 34.2 °F 26.8 °F 33.4 °F 97% 30.20 in 2.0 mi NNE 9.2 mph - N/A   Drizzle
11:55 PM 33.8 °F 25.8 °F 33.1 °F 97% 30.20 in 2.0 mi NNE 10.4 mph - N/A   Light Drizzle